This demonstration page uses our WeatherBlox Daily Observations layout. Learn more.

Left ArrowRight Arrow

47.50024, -111.30081

Hourly Observations for March 27, 2017

Temp ( °F °C ) Dew Point ( °F °C ) Humidity (%) Winds ( mph kmh ) Pressure ( in mb ) Visibility ( mi km ) Precip ( " mm )
12:53 am 00:53 Cloudy 41 5 18 -7.8 39 39 E 7 11 29.80 1009 10 16 0.00 0.00
1:53 am 01:53 Cloudy 45 7.2 27 -2.8 49 49 SSW 14 22 29.79 1009 10 16 0.00 0.00
2:53 am 02:53 Mostly Cloudy 38 3.3 22 -5.6 52 52 SSW 10 17 29.82 1010 10 16 0.00 0.00
3:53 am 03:53 Cloudy 39 3.9 26 -3.3 60 60 SSW 7 11 29.82 1010 10 16 0.00 0.00
4:53 am 04:53 Mostly Cloudy 39 3.9 29 -1.7 67 67 SSW 8 13 29.81 1010 10 16 0.00 0.00
5:53 am 05:53 Mostly Cloudy 39 3.9 30 -1.1 70 70 SSW 10 17 29.81 1010 10 16 0.00 0.00
6:53 am 06:53 Clear 37 2.8 30 -1.1 76 76 SSW 10 17 29.83 1010 10 16 0.00 0.00
7:53 am 07:53 Sunny 36 2.2 30 -1.1 79 79 SW 9 15 29.86 1011 10 16 0.00 0.00
8:53 am 08:53 Sunny 43 6.1 31 -0.6 63 63 SW 9 15 29.85 1011 10 16 0.00 0.00
9:53 am 09:53 Sunny 47 8.3 29 -1.7 50 50 WSW 10 17 29.85 1011 10 16 0.00 0.00
10:53 am 10:53 Sunny 49 9.4 27 -2.8 43 43 WSW 12 19 29.85 1011 10 16 0.00 0.00
11:53 am 11:53 Sunny 54 12.2 26 -3.3 34 34 WNW 10 17 29.85 1011 10 16 0.00 0.00
12:53 pm 12:53 Mostly Cloudy 53 11.7 25 -3.9 34 34 WNW 8 13 29.85 1011 10 16 0.00 0.00
1:53 pm 13:53 Cloudy 53 11.7 26 -3.3 35 35 W 13 20 29.85 1011 10 16 0.00 0.00
2:53 pm 14:53 Cloudy 53 11.7 27 -2.8 37 37 W 10 17 29.87 1012 10 16 0.00 0.00
3:53 pm 15:53 Cloudy 55 12.8 26 -3.3 33 33 W 9 15 29.87 1011 10 16 0.00 0.00
4:53 pm 16:53 Cloudy 52 11.1 27 -2.8 38 38 W 3 6 29.90 1012 10 16 0.00 0.00
5:53 pm 17:53 Cloudy with Light Rain 50 10 31 -0.6 48 48 WNW 18 30 29.93 1014 10 16 0.00 0.03
6:53 pm 18:53 Cloudy 47 8.3 31 -0.6 54 54 NW 9 15 29.98 1015 10 16 0.00 0.03
7:53 pm 19:53 Cloudy 46 7.8 30 -1.1 54 54 NW 6 9 30.01 1016 10 16 0.00 0.00
8:53 pm 20:53 Cloudy 43 6.1 30 -1.1 60 60 SW 12 19 30.03 1017 10 16 0.00 0.00
9:53 pm 21:53 Cloudy with Light Rain 41 5 36 2.2 82 82 VRB 7 11 30.05 1018 9 14 0.02 0.51
10:53 pm 22:53 Mostly Cloudy 40 4.4 34 1.1 79 79 SSW 9 15 30.05 1018 10 16 0.00 0.03
11:53 pm 23:53 Cloudy 40 4.4 34 1.1 79 79 SW 13 20 30.06 1018 10 16 0.00 0.00

Powered by AerisWeather